Language selection

Features

My Weather Profile Weather Topics  | 

West Coast Haida Gwaii - northern half: Past 24 Hour Conditions

 

Bella Bella Airport

01:00 PM PDT 19 August 2019
Disclaimer

This table is a summary of hourly weather conditions for the past 24 hours.
Please note that these observations might not always be representative of weather conditions over their associated marine area.

Date / Time
(PDT)
Wind(knots) Conditions Visibility(km) Pressure(kPa) Air tempC) Relative humidity(%) Dew pointC)
19 August 2019
13:00 SE 3 Cloudy 16 101.5 16 75 11
12:00 ESE 2 Cloudy 16 101.5 15 78 12
11:00 SSE 4 Mostly Cloudy 16 101.5 15 85 12
10:00 SSE 2 Mostly Cloudy 16 101.5 14 90 12
9:00 SSE 5 Mainly Sunny 16 101.5 13 93 12
8:00 SSE 2 Partly Cloudy 16 101.4 11 99 11
7:00 calm Sunny 16 101.4 7 99 7
6:00 S 2 Mist 4 101.4 9 99 9
5:00 SSE 3 Clear 16 101.4 9 99 9
4:00 SSE 2 Mostly Cloudy 16 101.3 8 99 8
3:00 S 2 Clear 16 101.3 9 99 9
2:00 SE 3 Mostly Cloudy 16 101.3 11 99 11
1:00 S 3 Mostly Cloudy 16 101.2 10 99 10
0:00 SSE 2 Partly Cloudy 16 101.2 9 99 9
18 August 2019
23:00 calm Clear 16 101.1 9 99 9
22:00 SSE 2 Clear 16 101.1 10 99 10
21:00 S 3 Clear 16 101.0 12 98 12
20:00 S 6 Mainly Sunny 16 101.0 14 93 13
19:00 S 6 Cloudy 16 100.9 15 96 14
18:00 S 6 Light Rain 4 100.9 15 97 14
17:00 SSW 6 gust 15 Light Rain 5 100.9 15 95 14
16:00 S 9 gust 15 Cloudy 16 100.9 16 93 15
15:00 S 8 gust 15 Light Rain 15 100.8 15 96 14
14:00 S 11 gust 16 Cloudy 16 100.8 15 94 14
13:00 S 6 Cloudy 16 100.8 15 96 15

Zoom-in to make a selection

Map of Pacific - North Coast marine weather areas Middle Nomad - 46004 South Nomad - 46036 Dixon Entrance Central - 46145 South Moresby - 46147 Nanakwa Shoal - 46181 North Hecate Strait - 46183 North Nomad - 46184 South Hecate Strait - 46185 West Sea Otter - 46204 West Dixon Entrance - 46205 East Dellwood - 46207 West Moresby - 46208 Sartine Island Cape St.James Kindakun Rocks Langara Island Masset Municipal Airport Rose Spit Sandspit Airport Bella Bella Airport Bella Coola Airport Bonilla Island Cathedral Point Cumshewa Island Grey Islet Holland Rock Lucy Islands Lightstation Prince Rupert Airport
Legend:
buoy Buoy
land station Land Station

Pacific - North Coast Area

Another Region

What we are doing

Date modified: